period_start,C,m1,H,J0,J1,J2,J3,J4,J5,JA,JB,JC,JD,JJ,JK,JN,#
2014-06-24 00:03:40,0.00,0.93,0.00,25.12,29.90,32.29,9.33,38.22,1000.51,2027.99,3066.70,3037.98,3289.96,499.87,485.18,48.45,0000 0000 0000 0000 000000
2014-06-24 00:08:41,0.00,0.93,0.00,25.12,29.87,32.27,9.37,39.33,1000.51,2027.99,3066.52,3037.99,3289.97,500.19,485.49,48.49,0000 0000 0000 0000 000000
2014-06-24 00:13:42,0.00,0.93,0.00,25.13,29.87,32.26,9.44,39.63,1000.50,2028.01,3066.46,3037.99,3289.99,500.38,485.79,48.53,0000 0000 0000 0000 000000
2014-06-24 00:18:43,-0.00,0.93,0.00,25.11,29.85,32.23,9.35,39.73,1000.49,2028.02,3066.66,3038.00,3289.99,500.04,485.34,48.57,0000 0000 0000 0000 000000
2014-06-24 00:23:44,-0.00,0.93,0.00,25.11,29.83,32.24,9.38,39.55,1000.48,2028.05,3066.88,3038.00,3289.99,499.74,485.23,48.61,0000 0000 0000 0000 000000
2014-06-24 00:28:45,0.03,0.93,0.00,25.12,29.82,32.19,9.37,39.60,1000.48,2028.18,3066.71,3038.01,3290.00,499.75,485.21,48.66,0000 0000 0000 0000 000000
2014-06-24 00:33:46,0.00,0.93,0.00,25.11,29.81,32.18,9.41,39.40,1000.44,2028.36,3066.87,3038.03,3290.01,500.53,485.82,48.70,0000 0000 0000 0000 000000
2014-06-24 00:38:48,0.03,0.93,0.00,25.10,29.80,32.17,9.40,39.48,1000.48,2028.47,3066.83,3038.09,3290.01,500.35,485.60,48.74,0000 0000 0000 0000 000000
2014-06-24 00:43:49,0.00,0.93,0.00,25.10,29.78,32.17,9.38,39.30,1000.49,2028.88,3066.99,3038.56,3290.27,500.18,485.41,48.78,0000 0000 0000 0000 000000
2014-06-24 00:48:50,0.01,0.93,0.00,25.10,29.77,32.15,9.32,39.11,1000.50,2028.92,3066.99,3038.58,3290.33,500.21,485.66,48.82,0000 0000 0000 0000 000000
2014-06-24 00:53:51,0.02,0.93,0.00,25.12,29.77,32.14,9.41,39.08,1000.48,2028.96,3066.92,3038.37,3290.15,500.43,485.73,48.86,0000 0000 0000 0000 000000
2014-06-24 00:58:52,-0.01,0.93,0.00,25.12,29.77,32.13,9.33,38.80,1000.49,2028.98,3066.98,3038.62,3290.25,499.44,485.06,48.91,0000 0000 0000 0000 000000
2014-06-24 01:03:53,0.01,0.93,0.00,25.12,29.75,32.12,9.32,38.63,1000.49,2028.98,3066.99,3038.59,3290.34,499.92,485.32,48.95,0000 0000 0000 0000 000000
2014-06-24 01:08:54,0.01,0.93,0.00,25.13,29.75,32.11,9.33,38.34,1000.47,2028.99,3066.84,3038.31,3290.05,499.78,485.02,48.99,0000 0000 0000 0000 000000
2014-06-24 01:13:55,-0.01,0.93,0.00,25.13,29.75,32.10,9.30,38.65,1000.40,2028.99,3066.94,3038.42,3290.12,499.82,485.08,49.03,0000 0000 0000 0000 000000
2014-06-24 01:18:57,-0.01,0.93,0.00,25.14,29.73,32.11,9.31,38.27,1000.30,2028.99,3066.99,3038.70,3290.32,500.18,485.30,49.07,0000 0000 0000 0000 000000
2014-06-24 01:23:58,-0.00,0.93,0.00,25.13,29.72,32.09,9.29,38.49,1000.21,2028.99,3066.98,3038.81,3290.45,499.51,484.60,49.11,0000 0000 0000 0000 000000
2014-06-24 01:28:59,-0.00,0.93,0.00,25.12,29.72,32.08,9.34,38.47,1000.18,2028.99,3066.97,3038.82,3290.42,500.11,485.26,49.16,0000 0000 0000 0000 000000
2014-06-24 01:34:00,0.01,0.93,0.00,25.13,29.72,32.07,9.40,38.63,1000.07,2028.99,3066.94,3038.89,3290.43,500.18,485.35,49.20,0000 0000 0000 0000 000000
2014-06-24 01:39:01,-0.00,0.93,0.00,25.14,29.72,32.07,9.34,38.20,1000.05,2028.99,3066.97,3038.87,3290.33,499.98,485.08,49.24,0000 0000 0000 0000 000000
2014-06-24 01:44:02,0.00,0.93,0.00,25.14,29.71,32.07,9.29,37.99,1000.22,2028.99,3066.98,3038.84,3290.33,499.51,484.46,49.28,0000 0000 0000 0000 000000
2014-06-24 01:49:04,0.01,0.93,0.00,25.12,29.70,32.08,9.37,38.33,1000.24,2028.99,3066.92,3038.73,3290.22,500.13,485.37,49.32,0000 0000 0000 0000 000000
2014-06-24 01:54:05,-0.00,0.93,0.00,25.12,29.70,32.06,9.37,38.06,1000.05,2028.99,3066.81,3038.67,3290.10,499.66,484.86,49.36,0000 0000 0000 0000 000000
2014-06-24 01:59:06,0.00,0.93,0.00,25.14,29.70,32.06,9.32,38.06,1000.03,2028.99,3066.71,3038.58,3290.07,500.06,485.14,49.41,0000 0000 0000 0000 000000
2014-06-24 02:04:07,-0.00,0.93,0.00,25.15,29.70,32.07,9.40,38.46,1000.05,2029.00,3066.89,3038.55,3290.09,500.02,485.11,49.45,0000 0000 0000 0000 000000
2014-06-24 02:09:09,-0.00,0.93,0.00,25.11,29.70,32.07,9.31,38.42,1000.07,2029.00,3066.96,3038.48,3290.15,499.53,484.73,49.49,0000 0000 0000 0000 000000
2014-06-24 02:14:10,-0.01,0.93,0.00,25.03,29.70,32.07,9.29,38.25,1000.06,2029.00,3066.91,3038.81,3290.27,500.01,485.33,49.53,0000 0000 0000 0000 000000
2014-06-24 02:19:11,0.01,0.93,0.00,24.94,29.69,32.09,9.47,38.84,1000.07,2029.01,3066.85,3038.75,3290.13,500.50,485.99,49.57,0000 0000 0000 0000 000000
2014-06-24 02:24:12,-0.01,0.93,0.00,24.83,29.67,32.14,9.36,38.33,1000.07,2029.00,3066.89,3038.83,3290.22,499.87,485.53,49.61,0000 0000 0000 0000 000000
2014-06-24 02:29:13,-0.00,0.93,0.00,24.73,29.66,32.20,9.40,38.74,1000.06,2029.03,3066.95,3038.93,3290.56,500.00,485.57,49.66,0000 0000 0000 0000 000000
2014-06-24 02:34:14,0.00,0.93,0.00,24.64,29.65,32.28,9.41,38.60,1000.06,2029.04,3066.86,3038.95,3290.61,500.16,486.07,49.70,0000 0000 0000 0000 000000
2014-06-24 02:39:15,0.03,0.93,0.00,24.55,29.62,32.31,9.45,39.28,1000.05,2029.10,3066.26,3038.95,3290.31,500.44,486.34,49.74,0000 0000 0000 0000 000000
2014-06-24 02:44:16,0.00,0.93,0.00,24.49,29.60,32.29,9.40,39.55,1000.04,2029.29,3066.64,3038.98,3290.76,499.93,486.15,49.78,0000 0000 0000 0000 000000
2014-06-24 02:49:17,0.05,0.94,0.00,24.43,29.57,32.25,9.39,39.52,1000.02,2029.67,3066.49,3038.99,3290.93,499.69,486.11,49.82,0000 0000 0000 0000 000000
2014-06-24 02:54:19,0.04,0.94,0.00,24.38,29.54,32.19,9.45,38.91,1000.04,2029.91,3066.05,3038.99,3290.81,500.07,486.24,49.86,0000 0000 0000 0000 000000
2014-06-24 02:59:19,0.00,0.60,0.00,24.36,29.51,32.12,8.21,34.18,1000.02,2030.36,3215.22,3142.09,3409.37,437.78,425.84,0.01,0000 0000 0000 0000 000002
2014-06-24 03:04:21,0.00,0.00,0.00,24.32,29.47,32.03,9.53,39.42,1000.03,2031.00,3468.24,3318.98,3613.92,500.34,486.83,0.02,0000 0000 0000 0000 000000
2014-06-24 03:09:21,0.00,0.00,0.00,24.28,29.43,32.01,9.47,39.38,1000.05,2031.01,3466.81,3318.28,3613.01,500.25,486.60,0.06,0000 0000 0000 0000 000000
2014-06-24 03:14:22,0.00,0.00,0.00,24.23,29.40,31.97,9.45,39.46,1000.04,2031.05,3466.06,3318.10,3612.53,500.10,486.79,0.11,0000 0000 0000 0000 000000
2014-06-24 03:19:24,0.01,0.00,0.00,24.20,29.36,31.96,9.36,39.52,1000.05,2031.36,3465.92,3318.04,3612.03,499.62,486.29,0.15,0000 0000 0000 0000 000000
2014-06-24 03:24:25,0.04,0.00,0.00,24.14,29.31,31.85,9.41,39.30,1000.03,2031.83,3465.54,3318.04,3612.00,500.08,486.74,0.19,0000 0000 0000 0000 000000
2014-06-24 03:29:25,0.02,0.00,0.00,24.09,29.27,31.80,9.49,39.34,1000.03,2031.97,3465.17,3318.04,3611.98,499.99,486.86,0.23,0000 0000 0000 0000 000000
2014-06-24 03:34:27,0.00,0.00,0.00,24.03,29.23,31.77,9.41,39.39,1000.05,2031.99,3465.01,3318.06,3611.91,500.04,486.64,0.27,0000 0000 0000 0000 000000
2014-06-24 03:39:28,0.00,0.01,0.00,23.99,29.19,31.72,9.51,39.30,1000.09,2032.00,3464.98,3318.07,3611.67,500.28,487.16,0.32,0000 0000 0000 0000 000000
2014-06-24 03:44:29,0.01,0.01,0.00,23.93,29.14,31.62,9.45,39.37,1000.05,2032.02,3464.78,3318.07,3611.35,499.99,487.09,0.36,0000 0000 0000 0000 000000
2014-06-24 03:49:30,-0.01,0.01,0.00,23.86,29.09,31.56,9.47,39.08,1000.03,2032.12,3464.83,3318.44,3611.56,500.33,487.63,0.40,0000 0000 0000 0000 000000
2014-06-24 03:54:31,0.10,0.01,0.00,23.82,29.04,31.53,9.39,38.61,1000.05,2032.68,3464.27,3318.47,3611.23,499.82,487.11,0.44,0000 0000 0000 0000 000000
2014-06-24 03:59:32,0.02,0.01,0.00,23.77,29.00,31.55,9.38,38.84,1000.04,2032.97,3464.08,3318.44,3611.21,499.84,487.16,0.48,0000 0000 0000 0000 000000
2014-06-24 04:04:33,0.01,0.01,0.00,23.74,28.95,31.46,9.44,38.86,1000.03,2032.99,3463.98,3318.01,3611.00,500.27,487.47,0.52,0000 0000 0000 0000 000000
2014-06-24 04:09:33,0.00,0.01,0.00,23.71,28.90,31.44,9.36,39.03,1000.03,2033.01,3463.98,3318.09,3611.01,499.86,487.21,0.57,0000 0000 0000 0000 000000
2014-06-24 04:14:34,0.01,0.01,0.00,23.69,28.85,31.46,9.57,39.46,1000.10,2033.13,3463.94,3318.21,3611.01,500.37,488.04,0.61,0000 0000 0000 0000 000000
2014-06-24 04:19:36,0.05,0.01,0.00,23.66,28.81,31.37,9.29,39.05,1000.19,2033.73,3463.95,3318.62,3611.06,499.40,487.07,0.65,0000 0000 0000 0000 000000
2014-06-24 04:24:37,0.05,0.02,0.00,23.64,28.76,31.31,9.46,38.50,1000.17,2033.98,3463.25,3318.27,3611.02,500.20,487.64,0.69,0000 0000 0000 0000 000000
2014-06-24 04:29:38,0.00,0.02,0.00,23.64,28.72,31.31,9.41,38.17,1000.17,2033.99,3463.00,3318.01,3610.97,499.73,487.55,0.73,0000 0000 0000 0000 000000
2014-06-24 04:34:39,0.00,0.02,0.00,23.60,28.68,31.28,9.42,37.89,1000.11,2034.01,3462.99,3318.01,3610.97,499.83,487.48,0.77,0000 0000 0000 0000 000000
2014-06-24 04:39:40,0.07,0.02,0.00,23.58,28.63,31.24,9.41,38.04,1000.08,2034.50,3462.98,3318.04,3610.99,500.00,487.65,0.82,0000 0000 0000 0000 000000
2014-06-24 04:44:41,0.02,0.02,0.00,23.57,28.59,31.20,9.41,37.73,1000.26,2034.96,3462.97,3318.24,3610.99,500.01,487.82,0.86,0000 0000 0000 0000 000000
2014-06-24 04:49:42,0.01,0.02,0.00,23.53,28.55,31.19,9.44,37.74,1000.33,2034.99,3462.71,3318.06,3610.98,500.18,487.99,0.90,0000 0000 0000 0000 000000
2014-06-24 04:54:43,-0.01,0.02,0.00,23.51,28.51,31.14,9.45,37.94,1000.24,2034.99,3462.78,3318.38,3610.99,499.49,487.68,0.94,0000 0000 0000 0000 000000
2014-06-24 04:59:44,-0.01,0.02,0.00,23.50,28.48,31.10,9.44,37.98,1000.26,2035.00,3462.92,3318.89,3610.99,499.97,487.81,0.98,0000 0000 0000 0000 000000
2014-06-24 05:04:46,0.02,0.02,0.00,23.47,28.44,31.08,9.46,37.95,1000.24,2035.14,3462.76,3318.97,3611.00,500.10,487.76,1.03,0000 0000 0000 0000 000000
2014-06-24 05:09:47,0.06,0.02,0.00,23.46,28.40,31.04,9.43,37.94,1000.16,2035.61,3462.13,3318.93,3611.00,500.10,487.90,1.07,0000 0000 0000 0000 000000
2014-06-24 05:14:48,0.04,0.03,0.00,23.46,28.36,31.00,9.41,37.99,1000.20,2035.94,3461.98,3318.67,3610.98,499.97,487.91,1.11,0000 0000 0000 0000 000000
2014-06-24 05:19:49,0.03,0.03,0.00,23.54,28.33,30.92,9.42,37.91,1000.27,2035.99,3461.48,3318.17,3610.83,500.06,487.77,1.15,0000 0000 0000 0000 000000
2014-06-24 05:24:50,0.01,0.03,0.00,23.67,28.30,30.83,9.33,38.06,1000.37,2035.99,3461.05,3318.04,3610.52,499.48,487.27,1.19,0000 0000 0000 0000 000000
2014-06-24 05:29:52,0.01,0.03,0.00,23.80,28.28,30.75,9.38,38.02,1000.39,2036.00,3460.82,3318.02,3610.19,499.71,487.27,1.24,0000 0000 0000 0000 000000
2014-06-24 05:34:53,0.04,0.03,0.00,23.93,28.26,30.63,9.38,38.09,1000.48,2036.01,3459.68,3317.80,3609.92,499.92,487.21,1.28,0000 0000 0000 0000 000000
2014-06-24 05:39:54,0.04,0.03,0.00,24.06,28.25,30.53,9.36,38.00,1000.50,2036.07,3459.00,3317.08,3609.18,499.90,487.14,1.32,0000 0000 0000 0000 000000
2014-06-24 05:44:55,0.01,0.03,0.00,24.19,28.25,30.49,9.35,37.92,1000.50,2036.09,3458.85,3317.00,3609.01,500.12,486.92,1.36,0000 0000 0000 0000 000000
2014-06-24 05:49:57,0.01,0.03,0.00,24.31,28.25,30.50,9.45,37.80,1000.50,2036.11,3458.15,3317.00,3608.99,500.65,487.32,1.40,0000 0000 0000 0000 000000
2014-06-24 05:54:58,0.01,0.03,0.00,24.41,28.25,30.52,9.42,37.78,1000.50,2036.10,3457.98,3316.86,3608.76,500.54,487.08,1.44,0000 0000 0000 0000 000000
2014-06-24 05:59:59,0.05,0.04,0.00,24.51,28.27,30.54,9.34,37.82,1000.51,2036.14,3457.16,3316.05,3607.94,499.75,486.07,1.49,0000 0000 0000 0000 000000
2014-06-24 06:05:00,0.10,0.04,0.00,24.58,28.29,30.58,9.29,37.86,1000.50,2036.13,3455.56,3314.87,3606.70,499.75,486.17,1.53,0000 0000 0000 0000 000000
2014-06-24 06:10:01,0.08,0.04,0.00,24.60,28.31,30.62,9.32,37.77,1000.51,2036.06,3453.71,3313.60,3605.34,499.73,485.93,1.57,0000 0000 0000 0000 000000
2014-06-24 06:15:02,0.01,0.04,0.00,24.66,28.34,30.67,9.41,37.87,1000.51,2036.01,3453.02,3313.01,3604.84,500.24,486.28,1.61,0000 0000 0000 0000 000000
2014-06-24 06:20:04,0.01,0.04,0.00,24.74,28.37,30.71,9.32,37.96,1000.53,2036.00,3452.88,3312.97,3604.11,500.10,485.95,1.65,0000 0000 0000 0000 000000
2014-06-24 06:25:05,0.02,0.05,0.00,24.82,28.40,30.76,9.26,37.94,1000.53,2036.00,3452.37,3312.67,3604.00,499.69,485.83,1.70,0000 0000 0000 0000 000000
2014-06-24 06:30:06,0.01,0.05,0.00,24.87,28.44,30.80,9.37,37.92,1000.53,2036.00,3452.01,3312.06,3603.94,500.10,485.86,1.74,0000 0000 0000 0000 000000
2014-06-24 06:35:08,0.03,0.05,0.00,24.89,28.48,30.86,9.33,37.89,1000.53,2035.99,3451.63,3311.88,3603.22,500.18,485.82,1.78,0000 0000 0000 0000 000000
2014-06-24 06:40:09,0.02,0.05,0.00,24.89,28.51,30.91,9.33,38.09,1000.53,2035.92,3451.00,3311.16,3602.74,499.92,485.60,1.82,0000 0000 0000 0000 000000
2014-06-24 06:45:10,-0.02,0.05,0.00,24.87,28.56,30.97,9.34,38.04,1000.54,2035.69,3450.65,3311.00,3602.12,499.65,485.39,1.86,0000 0000 0000 0000 000000
2014-06-24 06:50:11,-0.03,0.05,0.00,24.76,28.59,31.01,9.36,38.00,1000.53,2035.15,3450.04,3310.93,3602.00,500.23,486.20,1.90,0000 0000 0000 0000 000000
2014-06-24 06:55:12,0.01,0.05,0.00,24.65,28.62,31.06,9.37,38.01,1000.58,2035.03,3450.00,3310.54,3601.80,500.04,486.16,1.95,0000 0000 0000 0000 000000
2014-06-24 07:00:13,0.03,0.05,0.00,24.56,28.65,31.12,9.39,37.93,1000.67,2035.00,3449.51,3310.04,3601.12,499.92,486.35,1.99,0000 0000 0000 0000 000000
2014-06-24 07:05:14,0.00,0.05,0.00,24.46,28.67,31.17,9.42,37.97,1000.74,2035.00,3449.02,3309.99,3600.99,500.47,487.10,2.03,0000 0000 0000 0000 000000
2014-06-24 07:10:15,0.00,0.05,0.00,24.38,28.70,31.20,9.34,37.98,1000.79,2035.00,3449.00,3309.98,3600.96,500.18,486.76,2.07,0000 0000 0000 0000 000000
2014-06-24 07:15:16,0.02,0.05,0.00,24.38,28.70,31.20,9.41,37.92,1000.78,2035.00,3448.85,3309.83,3600.63,500.07,486.75,2.11,0000 0000 0000 0000 000000
2014-06-24 07:20:17,0.03,0.05,0.00,24.41,28.72,31.19,9.35,37.98,1000.74,2034.99,3448.08,3309.13,3600.03,500.11,486.86,2.16,0000 0000 0000 0000 000000
2014-06-24 07:25:18,-0.00,0.05,0.00,24.46,28.72,31.18,9.36,37.86,1000.85,2034.97,3448.00,3309.00,3600.00,499.76,486.68,2.20,0000 0000 0000 0000 000000
2014-06-24 07:30:19,0.00,0.05,0.00,24.51,28.73,31.16,9.41,37.77,1000.91,2034.98,3447.96,3309.00,3599.97,500.22,486.77,2.24,0000 0000 0000 0000 000000
2014-06-24 07:35:21,0.01,0.05,0.00,24.52,28.75,31.15,9.46,37.90,1000.88,2034.97,3447.84,3308.99,3599.82,500.32,486.73,2.28,0000 0000 0000 0000 000000
2014-06-24 07:40:22,0.02,0.05,0.00,24.56,28.75,31.15,9.36,37.83,1000.90,2034.95,3447.30,3308.96,3599.26,499.90,486.36,2.32,0000 0000 0000 0000 000000
2014-06-24 07:45:23,0.00,0.05,0.00,24.59,28.76,31.14,9.34,37.77,1000.98,2034.91,3447.05,3308.87,3599.03,500.12,486.58,2.37,0000 0000 0000 0000 000000
2014-06-24 07:50:24,-0.00,0.05,0.00,24.61,28.77,31.15,9.36,37.88,1000.97,2034.84,3447.00,3308.53,3599.00,500.09,486.45,2.41,0000 0000 0000 0000 000000
2014-06-24 07:55:26,0.00,0.05,0.00,24.64,28.79,31.16,9.34,37.80,1000.93,2034.70,3447.00,3308.08,3599.00,500.27,486.73,2.45,0000 0000 0000 0000 000000
2014-06-24 08:00:27,-0.01,0.05,0.00,24.64,28.80,31.17,9.25,37.73,1000.90,2034.55,3446.98,3308.04,3598.97,499.68,485.99,2.49,0000 0000 0000 0000 000000
2014-06-24 08:05:28,-0.01,0.05,0.00,24.66,28.81,31.18,9.35,37.70,1000.90,2034.35,3446.93,3308.00,3598.88,500.24,486.64,2.53,0000 0000 0000 0000 000000
2014-06-24 08:10:29,-0.01,0.05,0.00,24.67,28.82,31.20,9.43,37.79,1000.88,2034.09,3446.49,3308.00,3598.35,499.90,486.26,2.57,0000 0000 0000 0000 000000
2014-06-24 08:15:30,0.01,0.05,0.00,24.69,28.84,31.22,9.37,37.67,1000.94,2034.06,3446.04,3307.99,3598.02,500.27,486.42,2.62,0000 0000 0000 0000 000000
2014-06-24 08:20:31,0.00,0.05,0.00,24.69,28.85,31.24,9.44,37.82,1000.98,2034.04,3446.01,3307.95,3598.01,499.97,486.11,2.66,0000 0000 0000 0000 000000
2014-06-24 08:25:33,0.00,0.05,0.00,24.70,28.87,31.25,9.38,37.66,1000.98,2034.02,3446.00,3307.90,3598.00,500.24,486.50,2.70,0000 0000 0000 0000 000000
2014-06-24 08:30:34,0.01,0.05,0.00,24.70,28.88,31.26,9.32,37.89,1000.98,2034.02,3445.99,3307.45,3597.98,500.07,486.32,2.74,0000 0000 0000 0000 000000
2014-06-24 08:35:35,0.02,0.05,0.00,24.71,28.90,31.28,9.38,37.93,1000.98,2034.00,3445.68,3307.04,3597.50,499.88,486.14,2.78,0000 0000 0000 0000 000000
2014-06-24 08:40:36,0.01,0.05,0.00,24.72,28.91,31.30,9.34,37.86,1000.99,2034.00,3445.10,3307.00,3597.06,500.05,486.23,2.83,0000 0000 0000 0000 000000
2014-06-24 08:45:37,0.00,0.05,0.00,24.72,28.92,31.32,9.33,37.91,1000.99,2034.00,3445.02,3306.99,3597.01,500.16,486.49,2.87,0000 0000 0000 0000 000000
2014-06-24 08:50:38,0.00,0.05,0.00,24.73,28.94,31.33,9.37,37.85,1000.99,2034.00,3445.00,3306.98,3596.99,500.08,486.36,2.91,0000 0000 0000 0000 000000
2014-06-24 08:55:39,0.00,0.05,0.00,24.75,28.95,31.35,9.39,37.77,1000.99,2033.99,3445.00,3306.96,3596.99,500.56,486.78,2.95,0000 0000 0000 0000 000000
2014-06-24 09:00:40,0.00,0.05,0.00,24.75,28.96,31.36,9.36,37.88,1000.99,2033.99,3444.99,3306.83,3596.97,500.27,486.34,2.99,0000 0000 0000 0000 000000
2014-06-24 09:05:41,0.01,0.05,0.00,24.74,28.97,31.37,9.39,37.86,1000.99,2033.99,3444.97,3306.59,3596.91,499.99,485.99,3.03,0000 0000 0000 0000 000000
2014-06-24 09:10:43,0.02,0.05,0.00,24.73,28.99,31.38,9.42,37.66,1000.99,2033.98,3444.91,3306.39,3596.75,499.90,486.09,3.08,0000 0000 0000 0000 000000
2014-06-24 09:15:43,0.01,0.06,0.00,24.72,29.00,31.40,9.36,37.61,1000.99,2033.96,3444.62,3306.05,3596.17,499.91,485.95,3.12,0000 0000 0000 0000 000000
2014-06-24 09:20:44,0.01,0.06,0.00,24.71,29.01,31.41,9.41,37.60,1000.99,2033.89,3444.06,3306.00,3596.01,500.43,486.68,3.16,0000 0000 0000 0000 000000
2014-06-24 09:25:45,-0.00,0.06,0.00,24.69,29.02,31.42,9.46,37.73,1000.99,2033.79,3444.00,3306.00,3596.00,500.29,486.67,3.20,0000 0000 0000 0000 000000
2014-06-24 09:30:46,0.00,0.06,0.00,24.70,29.02,31.44,9.39,37.62,1000.99,2033.85,3444.00,3306.00,3596.00,500.04,486.21,3.24,0000 0000 0000 0000 000000
2014-06-24 09:35:48,-0.01,0.06,0.00,24.70,29.04,31.45,9.22,37.63,1000.99,2033.77,3444.00,3306.00,3595.99,499.18,485.58,3.29,0000 0000 0000 0000 000000
2014-06-24 09:40:49,-0.01,0.06,0.00,24.68,29.05,31.45,9.39,37.71,1000.99,2033.67,3444.00,3305.99,3595.98,499.97,486.34,3.33,0000 0000 0000 0000 000000
2014-06-24 09:45:50,-0.00,0.06,0.00,24.69,29.05,31.46,9.42,37.73,1001.00,2033.60,3443.98,3305.99,3595.96,500.60,487.06,3.37,0000 0000 0000 0000 000000
2014-06-24 09:50:51,-0.02,0.05,0.00,24.69,29.05,31.47,9.29,37.57,1001.00,2033.48,3443.96,3305.95,3595.92,499.95,486.25,3.41,0000 0000 0000 0000 000000
2014-06-24 09:55:52,0.00,0.05,0.00,24.67,29.06,31.48,9.44,37.52,1001.10,2033.38,3443.95,3305.94,3595.82,500.28,486.44,3.45,0000 0000 0000 0000 000000
2014-06-24 10:00:53,0.01,0.05,0.00,24.67,29.07,31.48,9.52,37.60,1001.26,2033.31,3443.96,3305.91,3595.66,500.26,486.63,3.49,0000 0000 0000 0000 000000
2014-06-24 10:05:54,-0.02,0.05,0.00,24.68,29.07,31.48,9.38,37.65,1001.29,2033.17,3443.89,3305.75,3595.33,500.21,486.46,3.54,0000 0000 0000 0000 000000
2014-06-24 10:10:56,0.00,0.05,0.00,24.67,29.07,31.48,9.40,37.61,1001.35,2033.07,3443.70,3305.62,3595.19,500.10,486.70,3.58,0000 0000 0000 0000 000000
2014-06-24 10:15:57,0.01,0.05,0.00,24.67,29.07,31.49,9.46,37.54,1001.38,2033.03,3443.37,3305.22,3595.02,500.36,486.95,3.62,0000 0000 0000 0000 000000
2014-06-24 10:20:58,-0.01,0.05,0.00,24.65,29.07,31.49,9.28,37.40,1001.39,2033.06,3443.54,3305.29,3595.04,500.02,486.64,3.66,0000 0000 0000 0000 000000
2014-06-24 10:25:59,0.01,0.05,0.00,24.65,29.07,31.49,9.36,37.47,1001.44,2033.02,3443.34,3305.11,3595.01,499.74,486.21,3.70,0000 0000 0000 0000 000000
2014-06-24 10:31:00,0.00,0.05,0.00,24.63,29.08,31.49,9.40,37.49,1001.46,2033.01,3443.20,3305.07,3595.00,500.14,486.77,3.75,0000 0000 0000 0000 000000
2014-06-24 10:36:01,0.00,0.05,0.00,24.62,29.09,31.49,9.39,37.48,1001.48,2033.00,3443.14,3305.03,3595.00,499.87,486.38,3.79,0000 0000 0000 0000 000000
2014-06-24 10:41:02,0.00,0.05,0.00,24.62,29.09,31.50,9.32,37.38,1001.48,2033.00,3443.24,3305.06,3595.00,500.08,486.78,3.83,0000 0000 0000 0000 000000
2014-06-24 10:46:03,-0.00,0.05,0.00,24.61,29.09,31.50,9.36,37.48,1001.48,2033.00,3443.28,3305.07,3595.00,500.01,486.68,3.87,0000 0000 0000 0000 000000
2014-06-24 10:51:04,0.00,0.05,0.00,24.61,29.09,31.49,9.40,37.47,1001.48,2033.00,3443.23,3305.03,3595.00,499.96,486.53,3.91,0000 0000 0000 0000 000000
2014-06-24 10:56:05,-0.00,0.05,0.00,24.60,29.09,31.49,9.33,37.42,1001.48,2033.00,3443.43,3305.10,3595.00,499.76,486.55,3.95,0000 0000 0000 0000 000000
2014-06-24 11:01:06,-0.00,0.05,0.00,24.60,29.08,31.50,9.32,37.56,1001.48,2033.00,3443.62,3305.14,3595.00,500.12,486.74,4.00,0000 0000 0000 0000 000000
2014-06-24 11:06:07,0.00,0.05,0.00,24.59,29.08,31.50,9.42,37.47,1001.48,2033.00,3443.40,3305.10,3595.00,499.81,486.62,4.04,0000 0000 0000 0000 000000
2014-06-24 11:11:08,0.01,0.05,0.00,24.59,29.08,31.50,9.37,37.60,1001.49,2033.00,3443.51,3305.14,3595.00,499.79,486.49,4.08,0000 0000 0000 0000 000000
2014-06-24 11:16:09,-0.00,0.05,0.00,24.58,29.07,31.50,9.44,37.70,1001.49,2033.00,3443.21,3305.05,3594.99,500.12,486.71,4.12,0000 0000 0000 0000 000000
2014-06-24 11:21:10,-0.00,0.05,0.00,24.55,29.07,31.49,9.40,37.66,1001.49,2033.00,3443.40,3305.12,3594.99,500.25,487.06,4.16,0000 0000 0000 0000 000000
2014-06-24 11:26:11,0.01,0.05,0.00,24.57,29.07,31.50,9.45,37.78,1001.49,2033.00,3443.38,3305.12,3594.99,500.06,486.85,4.21,0000 0000 0000 0000 000000
2014-06-24 11:31:12,-0.00,0.05,0.00,24.55,29.07,31.49,9.32,38.18,1001.49,2033.00,3443.32,3305.11,3594.99,499.66,486.54,4.25,0000 0000 0000 0000 000000
2014-06-24 11:36:13,-0.00,0.05,0.00,24.52,29.07,31.48,9.37,38.37,1001.49,2033.00,3443.39,3305.18,3594.99,499.77,486.61,4.29,0000 0000 0000 0000 000000
2014-06-24 11:41:14,-0.01,0.05,0.00,24.52,29.05,31.47,9.42,38.13,1001.48,2033.00,3443.58,3305.30,3594.99,500.84,487.69,4.33,0000 0000 0000 0000 000000
2014-06-24 11:46:15,0.00,0.05,0.00,24.51,29.05,31.47,9.42,38.37,1001.48,2033.00,3443.41,3305.26,3594.99,499.70,486.63,4.37,0000 0000 0000 0000 000000
2014-06-24 11:51:16,-0.01,0.05,0.00,24.49,29.05,31.47,9.37,38.02,1001.48,2033.00,3443.49,3305.35,3594.99,500.14,487.10,4.41,0000 0000 0000 0000 000000
2014-06-24 11:56:17,-0.01,0.05,0.00,24.46,29.05,31.47,9.40,37.98,1001.48,2033.00,3443.76,3305.54,3595.00,500.07,487.08,4.46,0000 0000 0000 0000 000000
2014-06-24 12:01:18,-0.00,0.05,0.00,24.45,29.04,31.45,9.38,38.23,1001.48,2033.00,3443.89,3305.89,3595.01,500.03,486.97,4.50,0000 0000 0000 0000 000000
2014-06-24 12:06:19,-0.00,0.05,0.00,24.43,29.02,31.45,9.42,37.93,1001.48,2033.01,3443.96,3305.94,3595.06,500.43,487.36,4.54,0000 0000 0000 0000 000000
2014-06-24 12:11:20,0.00,0.05,0.00,24.42,29.02,31.44,9.43,38.00,1001.49,2033.03,3443.97,3305.96,3595.09,500.31,487.24,4.58,0000 0000 0000 0000 000000
2014-06-24 12:16:21,-0.00,0.05,0.00,24.42,29.02,31.45,9.44,37.89,1001.49,2033.01,3443.95,3305.97,3595.08,500.35,487.28,4.62,0000 0000 0000 0000 000000
2014-06-24 12:21:23,0.00,0.05,0.00,24.39,29.00,31.43,9.34,37.78,1001.48,2033.01,3443.97,3305.95,3595.05,499.95,487.03,4.66,0000 0000 0000 0000 000000
2014-06-24 12:26:24,-0.00,0.05,0.00,24.39,29.00,31.42,9.42,37.90,1001.48,2033.01,3443.98,3305.98,3595.11,499.96,487.14,4.71,0000 0000 0000 0000 000000
2014-06-24 12:31:24,0.00,0.05,0.00,24.38,29.00,31.41,9.40,37.96,1001.48,2033.01,3443.99,3305.98,3595.08,500.10,487.22,4.75,0000 0000 0000 0000 000000
2014-06-24 12:36:26,-0.00,0.05,0.00,24.37,28.98,31.41,9.37,38.01,1001.48,2033.04,3443.98,3305.98,3595.22,500.09,487.19,4.79,0000 0000 0000 0000 000000
2014-06-24 12:41:26,0.00,0.05,0.00,24.36,28.97,31.39,9.38,38.06,1001.48,2033.03,3443.97,3305.99,3595.19,500.18,487.29,4.83,0000 0000 0000 0000 000000
2014-06-24 12:46:27,-0.00,0.05,0.00,24.34,28.97,31.39,9.40,38.10,1001.48,2033.03,3443.99,3305.99,3595.18,500.05,487.19,4.87,0000 0000 0000 0000 000000
2014-06-24 12:51:29,0.00,0.05,0.00,24.34,28.95,31.39,9.45,37.98,1001.48,2033.07,3443.99,3305.99,3595.63,500.18,487.46,4.92,0000 0000 0000 0000 000000
2014-06-24 12:56:29,-0.00,0.05,0.00,24.32,28.95,31.38,9.41,37.94,1001.49,2033.15,3443.99,3306.00,3595.93,499.79,486.90,4.96,0000 0000 0000 0000 000000
2014-06-24 13:01:30,0.00,0.05,0.00,24.31,28.93,31.36,9.38,37.94,1001.49,2033.15,3443.99,3306.01,3595.94,500.14,487.18,5.00,0000 0000 0000 0000 000000